Total_Precipitation_Accumulation
0.24 0.47 1.09 1.79 2.94 3.27 2.55 1.70 1.18 0.98 0.97 0.94 0.85 0.89 1.00 1.27 1.84 2.99 3.06 2.61 2.01 2.09 2.69 2.96 3.34 3.22 3.07 2.97 3.07 3.33 3.21 2.87 2.74 2.83 2.70 2.69 2.73 2.62 2.63 2.70 2.75 2.77 2.72 2.81 3.00 2.96 3.02 3.05 3.07
0.46 0.89 1.63 2.73 3.52 2.92 2.37 1.63 0.99 0.83 0.80 0.92 0.92 0.84 0.77 0.89 1.06 1.70 2.47 2.51 1.72 1.68 2.13 2.25 2.72 2.82 2.85 2.74 2.76 2.97 2.91 2.70 2.61 2.45 2.51 2.64 2.68 2.69 2.70 2.77 2.85 2.88 2.82 2.88 2.97 2.97 3.03 3.05 3.09
0.74 1.16 1.97 3.06 2.65 2.14 1.99 1.40 0.89 0.61 0.72 0.97 0.99 0.74 0.86 1.24 1.32 1.78 2.14 1.94 1.59 1.58 1.79 2.14 2.52 2.61 2.66 2.50 2.44 2.55 2.47 2.41 2.38 2.33 2.43 2.58 2.71 2.75 2.78 2.78 2.89 3.13 3.20 3.18 3.12 3.20 3.26 3.15 3.00
1.02 1.47 2.13 2.41 1.69 1.20 1.15 1.07 0.83 0.73 0.86 0.97 0.86 0.81 1.04 1.44 1.44 1.59 1.55 1.46 1.34 1.61 1.80 2.18 2.60 2.56 2.49 2.34 2.25 2.24 2.25 2.23 2.24 2.31 2.52 2.64 2.71 2.73 2.76 2.80 2.96 3.27 3.30 3.11 3.14 3.29 3.27 3.26 3.18
1.24 1.90 2.60 2.09 1.47 0.98 0.77 0.75 0.74 0.86 0.94 1.03 0.89 0.96 1.44 1.64 1.28 1.20 1.16 1.33 1.42 1.73 2.05 2.36 2.64 2.63 2.60 2.43 2.24 2.16 2.08 2.14 2.17 2.23 2.43 2.53 2.57 2.53 2.61 2.75 2.76 2.77 2.91 3.06 3.15 3.14 3.08 3.19 3.19
1.61 2.02 2.20 1.65 1.15 0.78 0.62 0.63 0.75 0.92 0.88 0.91 1.00 1.19 1.88 1.85 1.36 1.20 1.19 1.39 1.60 1.78 2.12 2.59 2.84 2.94 2.88 2.61 2.33 2.21 2.11 2.03 2.03 2.08 2.13 2.27 2.37 2.46 2.71 2.79 2.57 2.43 2.60 2.94 3.12 3.10 3.13 3.16 3.15
1.74 2.04 1.88 1.26 0.96 0.78 0.67 0.60 0.65 0.84 0.92 1.06 1.06 1.24 1.91 2.11 1.57 1.25 1.37 1.75 1.97 2.04 2.10 2.54 2.87 3.00 3.08 2.85 2.47 2.34 2.18 2.02 1.96 1.91 1.97 2.06 2.21 2.32 2.56 2.77 2.66 2.46 2.51 2.83 3.12 3.17 3.35 3.21 2.97
1.26 1.49 1.49 1.06 0.87 0.74 0.56 0.54 0.64 0.84 0.96 0.93 1.02 1.28 1.66 1.75 1.46 1.39 1.69 2.25 2.57 2.55 2.38 2.24 2.35 2.78 3.02 2.81 2.65 2.58 2.25 1.96 1.93 1.97 2.14 2.34 2.50 2.58 2.69 2.71 2.91 2.65 2.57 2.80 3.13 3.23 3.26 3.14 3.10
0.91 1.25 1.36 0.96 0.71 0.61 0.51 0.54 0.58 0.63 0.72 0.93 1.14 1.36 1.37 1.20 1.23 1.48 1.89 2.39 2.75 2.62 2.53 2.27 2.16 2.37 2.57 2.42 2.29 2.51 2.27 2.07 2.23 2.50 2.67 2.78 2.83 2.62 2.80 2.83 3.33 3.22 3.10 3.25 3.42 3.53 3.63 3.63 3.64
0.76 1.07 0.90 0.57 0.46 0.48 0.44 0.45 0.47 0.69 1.01 1.42 1.65 1.55 1.33 1.19 1.33 1.63 1.95 2.14 2.28 2.35 2.33 2.38 2.19 2.22 2.26 2.08 2.35 2.86 2.53 2.52 2.81 2.97 2.84 3.40 3.60 3.36 2.75 2.96 3.62 3.82 3.86 3.89 3.92 4.15 4.07 3.90 3.84
0.57 0.63 0.47 0.35 0.30 0.34 0.38 0.39 0.45 0.71 1.28 1.71 1.90 1.57 1.36 1.38 1.52 1.68 2.09 2.30 2.42 2.42 2.30 2.41 2.31 2.30 2.46 2.66 2.67 2.96 3.07 3.24 3.38 3.37 3.39 3.77 3.59 3.21 2.92 3.18 3.68 3.84 3.85 3.88 4.00 4.24 3.92 3.84 3.99
0.32 0.29 0.24 0.23 0.22 0.24 0.27 0.34 0.53 0.78 1.22 1.48 1.39 1.21 1.19 1.48 1.70 1.92 2.26 2.62 2.74 2.87 2.82 2.61 2.50 2.73 2.93 2.89 2.83 2.74 2.58 2.69 2.91 3.04 2.99 3.52 4.00 3.87 3.72 3.85 3.79 4.00 4.17 4.46 4.15 4.16 4.14 4.13 3.99
0.24 0.20 0.19 0.19 0.21 0.23 0.24 0.33 0.52 0.84 1.04 1.08 0.95 0.99 1.27 1.62 1.89 2.38 2.88 2.96 2.95 3.24 3.42 3.26 3.14 3.14 3.04 3.18 2.83 2.52 2.50 2.37 2.31 2.69 2.99 3.23 3.66 3.86 3.92 3.74 3.72 3.55 3.71 3.85 3.86 3.60 3.90 4.17 4.16
0.18 0.15 0.18 0.22 0.22 0.23 0.30 0.39 0.52 0.77 0.84 0.84 0.91 1.14 1.36 1.78 2.10 2.66 3.17 3.25 3.36 3.66 3.89 3.84 3.83 3.65 3.37 3.14 3.09 3.06 2.76 2.68 2.34 2.59 2.75 3.03 3.40 3.57 3.47 3.54 3.68 3.49 3.53 3.54 3.57 3.60 4.04 4.34 4.39
0.16 0.19 0.27 0.27 0.24 0.26 0.36 0.68 0.69 0.83 0.90 0.89 1.09 1.22 1.58 2.04 2.32 2.66 2.89 3.29 3.75 4.21 4.30 4.26 4.25 4.23 4.21 3.88 3.50 3.18 3.10 2.86 2.78 2.78 2.72 2.93 3.26 3.52 3.45 3.42 3.28 3.27 3.37 3.57 3.62 3.75 4.04 4.01 4.10
0.26 0.44 0.59 0.44 0.34 0.31 0.45 1.07 1.10 0.98 0.94 1.03 1.22 1.47 1.71 1.99 2.40 2.63 2.96 3.32 3.76 4.34 4.78 4.87 4.34 4.40 4.50 4.46 4.15 3.67 3.60 3.47 3.30 3.00 2.86 2.84 3.11 3.24 3.30 3.13 3.02 3.07 2.96 3.15 3.47 3.53 3.65 3.89 4.12
0.33 0.49 0.57 0.54 0.37 0.35 0.52 1.13 1.41 1.13 0.94 1.08 1.38 1.62 1.92 2.14 2.56 2.69 2.88 3.17 3.67 4.63 5.59 5.61 5.12 4.73 4.49 4.49 4.58 4.41 4.22 3.91 3.45 3.25 3.16 2.99 2.86 2.67 2.80 2.88 2.97 2.81 2.78 2.91 2.79 3.38 3.61 3.80 4.03
0.27 0.33 0.47 0.61 0.43 0.40 0.57 1.04 1.11 1.08 1.17 1.15 1.23 1.42 1.67 1.79 2.09 2.36 2.66 3.22 4.06 5.31 6.14 6.06 5.45 5.08 4.81 4.64 4.52 4.53 4.28 4.00 3.54 3.37 3.22 2.94 2.93 2.58 2.66 2.65 2.76 2.65 2.83 3.09 3.31 3.65 3.61 3.51 3.68
0.20 0.26 0.39 0.46 0.37 0.47 0.63 0.97 1.10 1.21 1.36 1.32 1.21 1.23 1.47 1.64 1.92 2.38 2.94 3.78 4.89 5.86 6.18 5.71 5.26 5.01 4.66 4.31 3.74 3.47 3.59 3.54 3.31 2.95 2.58 2.53 2.45 2.54 2.85 2.61 2.85 2.68 2.84 2.98 3.10 3.30 3.35 3.23 3.36
0.19 0.26 0.37 0.42 0.33 0.38 0.67 1.08 1.39 1.35 1.28 1.22 1.30 1.31 1.39 1.73 2.15 2.85 3.86 4.43 4.72 4.89 4.65 4.35 4.18 4.04 3.56 3.32 3.27 3.11 3.17 2.92 2.78 2.66 2.76 2.35 2.20 2.29 2.32 2.72 2.72 2.76 3.02 3.02 3.02 3.23 3.17 3.05 3.16
0.21 0.25 0.34 0.41 0.31 0.38 0.70 1.32 1.60 1.52 1.25 1.13 1.25 1.25 1.40 1.78 2.34 3.15 3.73 3.85 3.61 3.28 3.15 3.14 3.28 3.09 3.01 3.11 3.09 3.03 3.14 2.84 2.65 2.62 2.76 2.34 2.02 2.01 2.15 2.33 2.56 2.81 2.70 2.91 3.02 2.93 3.10 3.17 3.11
0.23 0.18 0.18 0.21 0.33 0.59 0.83 1.59 1.76 1.54 1.45 1.26 1.31 1.27 1.28 1.51 1.89 2.32 2.60 2.48 2.57 2.69 2.71 2.85 2.98 2.80 2.85 2.89 2.68 2.61 2.57 2.46 2.44 2.50 2.60 2.62 2.17 1.98 1.99 2.10 2.32 2.55 2.45 2.77 2.55 2.76 3.17 3.22 2.99
0.14 0.13 0.16 0.24 0.41 0.65 0.87 1.30 1.54 1.35 1.56 1.30 1.13 1.08 1.01 1.19 1.36 1.50 1.60 1.71 1.90 2.02 2.19 2.46 2.77 2.80 2.69 2.57 2.57 2.62 2.46 2.47 2.46 2.48 2.59 2.68 2.46 2.16 1.93 2.03 2.27 2.39 2.36 2.46 2.53 2.95 2.99 2.97 2.96
0.12 0.16 0.27 0.39 0.61 1.18 1.15 1.18 1.46 1.47 1.47 1.28 1.09 0.91 0.95 1.08 1.22 1.33 1.33 1.43 1.60 1.73 1.94 2.20 2.60 2.76 2.73 2.57 2.49 2.52 2.58 2.59 2.53 2.57 2.56 2.38 2.35 2.31 2.11 2.10 2.27 2.26 2.28 2.35 2.44 2.75 2.76 2.93 3.09
0.14 0.22 0.51 0.87 1.27 1.43 0.97 1.07 1.37 1.25 1.09 0.97 0.76 0.71 0.80 0.98 1.14 1.33 1.35 1.33 1.41 1.54 1.67 1.78 2.07 2.39 2.54 2.51 2.48 2.47 2.65 2.57 2.36 2.27 2.24 2.22 2.01 1.96 2.03 2.10 2.29 2.19 2.20 2.29 2.62 2.76 2.72 2.89 2.94
0.12 0.15 0.34 0.52 0.62 0.75 0.94 1.39 1.48 1.21 0.82 0.57 0.56 0.69 0.87 0.99 1.08 1.21 1.26 1.23 1.28 1.34 1.50 1.65 1.98 2.17 2.36 2.41 2.40 2.42 2.48 2.37 2.20 2.25 2.07 2.05 1.96 1.87 1.96 2.06 2.06 2.06 2.13 2.18 2.66 2.54 2.61 2.78 2.70
0.13 0.14 0.16 0.25 0.30 0.56 1.00 1.30 1.25 1.07 0.83 0.67 0.63 0.73 0.94 0.95 0.91 1.01 1.08 1.21 1.29 1.27 1.43 1.57 1.86 2.23 2.46 2.56 2.62 2.57 2.54 2.50 2.44 2.37 2.15 1.96 2.08 1.97 2.06 2.14 2.14 2.15 2.32 2.49 2.72 2.54 2.58 2.76 2.57
0.12 0.15 0.19 0.23 0.33 0.50 0.82 1.27 1.47 1.29 1.05 0.89 0.81 0.81 0.91 0.92 0.89 1.09 1.30 1.38 1.26 1.13 1.24 1.38 1.68 2.18 2.47 2.65 2.63 2.47 2.66 2.55 2.51 2.42 2.21 2.04 2.05 2.10 2.24 2.37 2.35 2.41 2.43 2.54 2.69 2.46 2.59 2.66 2.55
0.12 0.14 0.20 0.23 0.25 0.36 0.68 0.94 0.90 0.90 0.85 0.82 0.88 0.85 0.73 0.82 0.94 1.18 1.48 1.49 1.32 1.12 1.08 1.24 1.63 1.97 2.22 2.43 2.51 2.37 2.32 2.25 2.27 2.28 2.21 2.17 2.18 2.17 2.19 2.31 2.36 2.34 2.38 2.50 2.62 2.40 2.48 2.49 2.53
0.13 0.16 0.20 0.26 0.25 0.24 0.40 0.68 0.53 0.62 0.69 0.79 0.93 0.98 0.92 0.95 1.01 1.07 1.25 1.43 1.31 1.22 1.19 1.40 1.71 1.89 2.01 2.12 2.17 2.14 2.14 2.13 2.07 2.01 2.09 2.17 2.09 2.00 2.08 2.15 2.17 2.11 2.24 2.44 2.45 2.32 2.41 2.47 2.45